Weather History for Kenosha, WI

Change the Weather History Date:

Tuesday, February 26, 2013

  Actual Average Record
Temperature  
Mean Temperature 32 °F -  
Max Temperature 35 °F 36 °F 57 °F (1976)
Min Temperature 30 °F 20 °F -2 °F (1963)
Degree Days  
Heating Degree Days 32    
Moisture  
Dew Point 29 °F    
Average Humidity 83    
Maximum Humidity 96    
Minimum Humidity 67    
Precipitation  
Precipitation 0.19 in - - ()
Sea Level Pressure  
Sea Level Pressure 29.69 in    
Wind  
Wind Speed 20 mph (NE)    
Max Wind Speed 26 mph    
Max Gust Speed 36 mph    
Visibility 4 miles    
Events Fog , Snow    
Averages and records for this station are not official NWS values.
T = Trace of Precipitation, MM = Missing Value Source: NWS Daily Summary

Daily Weather History Graph

Daily Weather History Graph

Search for Another Location

Airport:

Trip Planner

Search our weather history database for the weather conditions in past years. The results will help you decide how hot, cold, wet, or windy it might be!

Date:

Astronomy

Feb. 26, 2013 Rise Set
Actual Time 6:31 AM CST 5:38 PM CST
Civil Twilight 6:03 AM CST 6:06 PM CST
Nautical Twilight 5:30 AM CST 6:39 PM CST
Astronomical Twilight 4:58 AM CST 7:11 PM CST
Moon 6:57 PM CST (2/26) 6:32 AM CST (2/26)
Length of Visible Light 12h 03m
Length of Day
11h 06m
Full, 99% of the Moon is Illuminated
Feb 26
Full
Mar 4
Last Quarter
Mar 11
New
Mar 19
First Quarter
Mar 27
Full

Hourly Weather History & Observations

Time (CST) Temp. Windchill Dew Point Humidity Pressure Visibility Wind Dir Wind Speed Gust Speed Precip Events Conditions
12:53 AM 34.0 °F 24.6 °F 28.9 °F 82% 29.99 in 10.0 mi ENE 13.8 mph - N/A   Clear
1:53 AM 34.0 °F 25.5 °F 28.0 °F 79% 30.01 in 10.0 mi East 11.5 mph - N/A   Clear
2:53 AM 34.0 °F 24.2 °F 28.0 °F 79% 29.95 in 9.0 mi ENE 15.0 mph - N/A   Clear
3:53 AM 34.0 °F 23.0 °F 28.0 °F 79% 29.92 in 9.0 mi ENE 18.4 mph 25.3 mph N/A   Clear
4:53 AM 33.1 °F 21.5 °F 27.0 °F 78% 29.90 in 8.0 mi ENE 19.6 mph - N/A   Clear
5:53 AM 33.1 °F 21.5 °F 26.1 °F 75% 29.88 in 10.0 mi ENE 19.6 mph 25.3 mph N/A   Clear
6:53 AM 34.0 °F 21.0 °F 26.1 °F 73% 29.85 in 10.0 mi ENE 26.5 mph 35.7 mph N/A   Partly Cloudy
7:53 AM 34.0 °F 21.0 °F 25.0 °F 70% 29.86 in 10.0 mi ENE 26.5 mph 31.1 mph N/A   Mostly Cloudy
8:53 AM 34.0 °F 21.0 °F 25.0 °F 70% 29.80 in 10.0 mi ENE 26.5 mph 33.4 mph N/A   Partly Cloudy
9:53 AM 34.0 °F 22.1 °F 26.1 °F 73% 29.75 in 10.0 mi ENE 21.9 mph 32.2 mph N/A   Scattered Clouds
10:53 AM 35.1 °F 23.3 °F 25.0 °F 67% 29.72 in 10.0 mi NE 23.0 mph 34.5 mph N/A   Partly Cloudy
11:53 AM 34.0 °F 22.4 °F 25.0 °F 70% 29.70 in 10.0 mi NE 20.7 mph 33.4 mph N/A   Overcast
12:53 PM 34.0 °F 22.1 °F 25.0 °F 70% 29.68 in 10.0 mi ENE 21.9 mph 34.5 mph N/A   Mostly Cloudy
1:01 PM 33.8 °F 20.8 °F 24.8 °F 70% 29.67 in 2.0 mi ENE 26.5 mph 35.7 mph 0.00 in Snow Light Snow
1:07 PM 33.8 °F 21.3 °F 26.6 °F 75% 29.67 in 0.5 mi ENE 24.2 mph 33.4 mph 0.00 in Snow Snow
1:29 PM 32.0 °F 20.1 °F 28.4 °F 87% 29.65 in 0.2 mi ENE 19.6 mph 35.7 mph 0.01 in Fog , Snow Heavy Snow
1:39 PM 32.0 °F 19.5 °F 28.4 °F 87% 29.63 in 0.2 mi NE 21.9 mph 29.9 mph 0.01 in Fog , Snow Heavy Snow
1:53 PM 30.9 °F 17.5 °F 28.9 °F 92% 29.63 in 0.1 mi NE 24.2 mph 34.5 mph 0.02 in Fog , Snow Heavy Snow
2:53 PM 32.0 °F 18.6 °F 30.0 °F 92% 29.63 in 0.1 mi NE 25.3 mph 33.4 mph 0.03 in Fog , Snow Heavy Snow
3:53 PM 32.0 °F 19.5 °F 30.0 °F 92% 29.62 in 0.1 mi NE 21.9 mph - 0.03 in Fog , Snow Heavy Snow
4:53 PM 32.0 °F 19.5 °F 30.9 °F 96% 29.62 in 0.2 mi NE 21.9 mph 32.2 mph 0.03 in Fog , Snow Snow
5:03 PM 33.8 °F 21.6 °F 30.2 °F 87% 29.59 in 0.2 mi NE 23.0 mph 31.1 mph 0.00 in Fog , Snow Snow
5:42 PM 33.8 °F 20.8 °F 30.2 °F 87% 29.60 in 0.5 mi NE 26.5 mph 34.5 mph 0.02 in Fog , Snow Snow
5:53 PM 33.1 °F 20.1 °F 30.9 °F 92% 29.62 in 1.0 mi NE 25.3 mph 31.1 mph 0.02 in Snow Light Snow
6:22 PM 33.8 °F 22.2 °F 30.2 °F 87% 29.60 in 0.8 mi NE 20.7 mph 33.4 mph 0.02 in Snow Light Snow
6:35 PM 33.8 °F 21.3 °F 30.2 °F 87% 29.60 in 1.0 mi NE 24.2 mph 29.9 mph 0.03 in Snow Light Snow
6:53 PM 33.1 °F 20.6 °F 30.9 °F 92% 29.62 in 1.0 mi NE 23.0 mph 32.2 mph 0.03 in Snow Light Snow
7:30 PM 33.8 °F 21.6 °F 30.2 °F 87% 29.60 in 0.8 mi NE 23.0 mph 34.5 mph 0.00 in Snow Light Snow
7:48 PM 33.8 °F 22.2 °F 30.2 °F 87% 29.59 in 1.0 mi NE 20.7 mph 27.6 mph 0.00 in Snow Light Snow
7:53 PM 33.1 °F 20.6 °F 30.9 °F 92% 29.62 in 1.0 mi NE 23.0 mph 29.9 mph 0.00 in Snow Light Snow
8:01 PM 33.8 °F 21.6 °F 30.2 °F 87% 29.59 in 0.8 mi NE 23.0 mph 32.2 mph 0.00 in Snow Light Snow
8:43 PM 33.8 °F 21.6 °F 30.2 °F 87% 29.58 in 1.8 mi NE 23.0 mph 29.9 mph 0.00 in Snow Light Snow
8:53 PM 33.1 °F 21.2 °F 30.0 °F 89% 29.60 in 1.2 mi NE 20.7 mph 32.2 mph 0.00 in Snow Light Snow
9:53 PM 33.1 °F 21.5 °F 30.0 °F 89% 29.59 in 1.5 mi NE 19.6 mph 27.6 mph 0.00 in Snow Light Snow
10:26 PM 33.8 °F 22.5 °F 30.2 °F 87% 29.56 in 0.8 mi NNE 19.6 mph 26.5 mph 0.01 in Snow Light Snow
10:53 PM 33.1 °F 21.5 °F 30.9 °F 92% 29.57 in 0.5 mi NE 19.6 mph 25.3 mph 0.01 in Fog , Snow Snow
11:53 PM 33.1 °F 22.6 °F 30.9 °F 92% 29.57 in 0.8 mi NNE 16.1 mph - 0.02 in Snow Light Snow